Weather History for KMLP - May, 2013

Change the Weather History Date:

Tuesday, May 14, 2013

  Actual Average (K3TH) Record (K3TH)
Temperature  
Mean Temperature 37 °F -  
Max Temperature 45 °F 65 °F 80 °F (1997)
Min Temperature 30 °F 43 °F 44 °F (1999)
Degree Days  
Heating Degree Days 28    
Moisture  
Dew Point 26 °F    
Average Humidity 70    
Maximum Humidity 88    
Minimum Humidity 47    
Precipitation  
Precipitation 0.00 in - - ()
Sea Level Pressure  
Sea Level Pressure 30.02 in    
Wind  
Wind Speed 8 mph (West)    
Max Wind Speed 13 mph    
Max Gust Speed 38 mph    
Visibility 10 miles    
Events Rain    
Averages and records for this station are not official NWS values.
T = Trace of Precipitation, MM = Missing Value Source: NWS Daily Summary

Daily Weather History Graph

Daily Weather History Graph

Search for Another Location

Airport or City:

Trip Planner

Search our weather history database for the weather conditions in past years. The results will help you decide how hot, cold, wet, or windy it might be!

Date:

Astronomy

May. 14, 2013 Rise Set
Actual Time 5:06 AM PDT 8:12 PM PDT
Civil Twilight 4:30 AM PDT 8:48 PM PDT
Nautical Twilight 3:43 AM PDT 9:36 PM PDT
Astronomical Twilight 2:45 AM PDT 10:34 PM PDT
Moon 8:51 AM PDT (5/14) 11:59 PM PDT (5/14)
Length of Visible Light 16h 18m
Length of Day
15h 05m
Waxing Crescent, 19% of the Moon is Illuminated
May 14
Waxing Crescent
May 17
First Quarter
May 24
Full
May 31
Last Quarter
Jun 8
New

Hourly Weather History & Observations

Time (PDT) Temp. Windchill Dew Point Humidity Pressure Visibility Wind Dir Wind Speed Gust Speed Precip Events Conditions
12:29 AM 35.6 °F 27.5 °F 32.0 °F 87% 30.06 in 10.0 mi WSW 11.5 mph 29.9 mph 0.00 in Rain Light Rain
12:53 AM 35.1 °F 26.4 °F 30.9 °F 85% 29.90 in 10.0 mi SW 12.7 mph 38.0 mph 0.00 in   Overcast
1:53 AM 34.0 °F 25.0 °F 28.0 °F 79% 29.91 in 10.0 mi WSW 12.7 mph 27.6 mph N/A   Mostly Cloudy
2:00 AM 33.8 °F 25.3 °F 26.6 °F 75% 30.08 in 10.0 mi WNW 11.5 mph 25.3 mph N/A   Mostly Cloudy
2:40 AM 33.8 °F 25.8 °F 28.4 °F 81% 30.08 in 10.0 mi SW 10.4 mph 23.0 mph 0.00 in   Mostly Cloudy
2:53 AM 33.1 °F 25.5 °F 28.0 °F 82% 29.91 in 10.0 mi WSW 9.2 mph 20.7 mph 0.00 in   Overcast
3:28 AM 32.0 °F 24.8 °F 26.6 °F 80% 30.09 in 10.0 mi WSW 8.1 mph 26.5 mph N/A   Scattered Clouds
3:43 AM 32.0 °F 23.6 °F 26.6 °F 80% 30.09 in 10.0 mi WSW 10.4 mph 23.0 mph N/A   Mostly Cloudy
3:53 AM 32.0 °F 23.6 °F 26.1 °F 79% 29.96 in 10.0 mi West 10.4 mph 18.4 mph N/A   Mostly Cloudy
4:41 AM 30.2 °F 24.3 °F 26.6 °F 86% 30.09 in 10.0 mi WNW 5.8 mph - N/A   Overcast
4:53 AM 30.0 °F 26.5 °F 27.0 °F 88% 30.00 in 10.0 mi Variable 3.5 mph - N/A   Overcast
5:11 AM 30.2 °F 26.7 °F 26.6 °F 86% 30.08 in 10.0 mi NW 3.5 mph - N/A   Mostly Cloudy
5:20 AM 30.2 °F 26.7 °F 26.6 °F 86% 30.08 in 10.0 mi Variable 3.5 mph - N/A   Mostly Cloudy
5:53 AM 30.0 °F 26.5 °F 27.0 °F 88% 30.00 in - WSW 3.5 mph - N/A   Mostly Cloudy
6:53 AM 30.9 °F 24.3 °F 27.0 °F 85% 30.00 in 10.0 mi WSW 6.9 mph - N/A   Scattered Clouds
7:53 AM 33.1 °F 30.0 °F 25.0 °F 72% 30.00 in - Variable 3.5 mph - N/A   Overcast
8:53 AM 35.1 °F - 26.1 °F 70% 29.99 in - Calm Calm - N/A   Overcast
9:53 AM 36.0 °F 31.1 °F 24.1 °F 62% 30.00 in 10.0 mi Variable 5.8 mph - N/A   Scattered Clouds
10:08 AM 37.4 °F 33.8 °F 24.8 °F 60% 30.11 in 10.0 mi Variable 4.6 mph - N/A   Mostly Cloudy
10:16 AM 37.4 °F 33.8 °F 26.6 °F 65% 30.11 in - Variable 4.6 mph - N/A   Mostly Cloudy
10:26 AM 37.4 °F 31.4 °F 24.8 °F 60% 30.11 in - SW 8.1 mph - N/A   Mostly Cloudy
10:34 AM 37.4 °F 34.9 °F 24.8 °F 60% 30.11 in - Variable 3.5 mph - N/A   Mostly Cloudy
10:53 AM 37.0 °F 31.6 °F 25.0 °F 62% 30.00 in - Variable 6.9 mph - N/A   Overcast
11:53 AM 41.0 °F 36.4 °F 23.0 °F 49% 29.99 in - Variable 6.9 mph - N/A   Overcast
12:53 PM 41.0 °F 39.0 °F 25.0 °F 53% 29.99 in 10.0 mi Variable 3.5 mph - N/A   Partly Cloudy
1:53 PM 42.1 °F 40.2 °F 23.0 °F 47% 29.99 in 10.0 mi Variable 3.5 mph - N/A   Partly Cloudy
2:53 PM 42.1 °F 39.2 °F 26.1 °F 53% 29.98 in 10.0 mi Variable 4.6 mph - N/A   Clear
3:53 PM 42.1 °F 38.4 °F 26.1 °F 53% 29.98 in 10.0 mi Variable 5.8 mph - N/A   Clear
4:53 PM 44.1 °F 41.5 °F 25.0 °F 47% 29.98 in 10.0 mi NNW 4.6 mph - N/A   Overcast
5:53 PM 43.0 °F 41.3 °F 27.0 °F 53% 29.97 in 10.0 mi Variable 3.5 mph - N/A   Partly Cloudy
6:53 PM 41.0 °F 37.1 °F 27.0 °F 57% 29.98 in 10.0 mi NW 5.8 mph - N/A   Clear
7:53 PM 39.0 °F 36.8 °F 28.9 °F 67% 29.97 in 10.0 mi Variable 3.5 mph - N/A   Clear
8:53 PM 36.0 °F 32.1 °F 27.0 °F 70% 29.98 in 10.0 mi WNW 4.6 mph - N/A   Clear
9:53 PM 35.1 °F 31.0 °F 24.1 °F 64% 29.99 in 10.0 mi WNW 4.6 mph - N/A   Clear
10:53 PM 34.0 °F 29.8 °F 25.0 °F 70% 29.99 in 10.0 mi NNW 4.6 mph - N/A   Clear
11:53 PM 34.0 °F 31.0 °F 25.0 °F 70% 29.99 in 10.0 mi NW 3.5 mph - N/A   Clear